#timestamp,LO_Frequency,Hit,StdDev 
1700503215.1,286047001.1,N
1700503216.0,286047001.1,N
1700503235.8,286047001.0,N
1700503255.7,286047000.8,N
1700503275.5,286046998.2,N
1700503295.3,286046998.6,N
1700503315.2,286046998.1,N
1700503335.0,286046998.1,N
1700503335.9,286046998.1,N
1700503355.7,286046998.3,N
1700503375.6,286046998.9,N
1700503395.4,286046998.3,N
1700503415.3,286046999.5,N
1700503435.1,286046999.2,N
1700503455.8,286046997.2,N
1700503475.7,286046997.1,N
1700503495.5,286046996.9,N
1700503515.4,286046999.5,N
1700503535.2,286046999.5,N
1700503555.0,286046999.5,N
1700503555.9,286046999.5,N
1700503575.8,286046999.1,N
1700503595.6,286046996.6,N
1700503615.4,286046996.5,N
1700503635.3,286046996.5,N
1700503655.1,286046996.6,N
1700503675.9,286046997.1,N
1700503695.7,286046997.1,N
1700503715.5,286046999.6,N
1700503735.4,286046996.9,N
1700503755.2,286046999.5,N
1700503775.0,286046996.6,N
1700503775.9,286046996.6,N
1700503795.8,286046996.9,N
1700503815.6,286046997.7,N
1700503835.5,286046997.3,N
1700503855.3,286046998.0,N
1700503875.1,286046997.9,N
1700503895.9,286046995.3,Y
1700503915.7,286046999.2,P
1700503935.5,286046999.6,N
1700503955.4,286046996.9,P
1700503975.2,286046999.6,N
1700503995.1,286046999.5,N
1700503996.0,286046999.5,N
1700504015.8,286046999.5,N
1700504035.6,286046999.6,N
1700504055.5,286046998.9,N
1700504075.3,286046999.5,N
1700504095.1,286046999.2,N
1700504115.9,286046996.9,Y
1700504135.7,286046998.8,P
1700504155.6,286046998.7,P
1700504175.4,286046997.0,P
1700504195.2,286046998.4,N
1700504215.1,286046997.0,Y
1700504216.0,286046997.0,P
1700504235.8,286046998.2,N
1700504255.7,286046999.4,N
1700504275.5,286046998.8,N
1700504295.3,286046998.9,N
1700504315.2,286046998.9,N
1700504335.0,286046998.4,N
1700504335.9,286046998.4,N
1700504355.7,286046998.4,N
1700504375.6,286046998.8,N
1700504395.4,286046999.3,N
1700504415.3,286046998.2,Y
1700504465.1,286047001.1,E
1700504475.1,286047000.8,N
1700504476.0,286047000.8,P
1700504495.8,286046999.5,P
1700504515.6,286046997.0,Y
1700504535.5,286046997.3,P
1700504555.3,286046996.6,N
1700504575.1,286046997.7,N
1700504595.9,286046997.6,N
1700504615.7,286046997.7,N
1700504635.6,286046995.6,Y
1700504655.4,286046998.8,P
1700504675.2,286046999.5,N
1700504695.1,286046999.1,N
1700504696.0,286046999.1,N
1700504715.8,286046998.3,Y
1700504735.7,286047000.6,P
1700504755.5,286047000.7,N
1700504775.3,286047000.7,N
1700504795.2,286046999.9,N
1700504815.0,286047000.2,N
1700504815.9,286047000.2,N
1700504835.7,286047000.9,N
1700504855.6,286047000.9,N
1700504875.4,286047000.7,N
1700504895.3,286047000.6,N
1700504915.1,286047001.1,N
1700504916.0,286047001.1,N
1700504935.8,286046998.2,Y
1700504955.7,286046999.5,P
1700504975.5,286046999.4,N
1700504995.4,286046998.7,N
1700505015.2,286046998.9,N
1700505035.0,286046998.3,N
1700505035.9,286046998.3,N
1700505055.8,286046998.5,N
1700505075.6,286046999.3,N
1700505095.4,286046998.6,N
1700505115.3,286046999.3,N
1700505135.1,286046998.9,N
1700505155.9,286046999.4,N
1700505175.7,286046999.4,N
1700505195.5,286046999.6,N
1700505215.4,286046999.1,N
1700505235.2,286046999.6,N
1700505255.0,286046997.0,Y
1700505255.9,286046997.0,P
1700505275.8,286046999.5,N
1700505295.6,286046999.4,N
1700505315.5,286046996.6,Y
1700505335.3,286046999.5,P
1700505355.1,286046999.1,N
1700505405.9,286046999.3,E
1700505415.8,286046998.7,N
1700505435.7,286046998.8,P
1700505455.5,286046998.3,P
1700505475.3,286046998.1,Y
1700505495.2,286047000.3,P
1700505515.0,286047000.6,N
1700505515.9,286047000.6,N
1700505535.8,286047000.4,N
1700505555.6,286047000.5,N
1700505575.4,286047001.0,N
1700505595.3,286047000.5,N
1700505615.1,286047000.7,N
1700505635.9,286047000.9,N
1700505655.7,286047000.7,N
1700505675.5,286046998.2,N
1700505695.4,286046998.6,N
1700505715.2,286046998.6,N
1700505735.0,286046998.2,N
1700505735.9,286046998.2,N
1700505755.8,286047001.2,N
1700505775.6,286046998.2,N
1700505795.5,286046998.8,N
1700505815.3,286046998.1,N
1700505835.1,286046998.3,N
1700505855.9,286046998.7,N
1700505875.7,286046998.9,N
1700505895.5,286046999.3,N
1700505915.4,286046999.3,N
1700505935.2,286046999.4,N
1700505955.1,286046996.5,Y
1700505956.0,286046996.5,P
1700505975.8,286046998.8,N
1700505995.6,286046999.0,N
1700506015.5,286046999.4,N
1700506035.3,286046999.2,N
1700506055.2,286046999.5,N
1700506075.9,286046998.7,N
1700506095.7,286046998.6,N
1700506115.6,286046999.1,N
1700506135.4,286046999.5,N
1700506155.2,286046996.5,Y
1700506175.1,286046998.6,P
1700506176.0,286046998.6,P
1700506195.8,286047000.3,N
1700506215.7,286047000.4,N
1700506235.5,286047000.0,N
1700506255.3,286047000.0,N
1700506275.2,286046999.9,N
1700506295.0,286047000.0,N
1700506295.9,286047000.0,N
1700506315.8,286047002.2,Y
1700506335.6,286047001.4,P
1700506355.4,286047001.8,N
1700506375.3,286047004.3,P
1700506395.1,286047001.5,N
1700506415.8,286047003.6,N
1700506435.7,286047005.8,Y
1700506455.5,286047001.5,P
1700506475.4,286047002.0,P
1700506495.2,286047004.2,P
1700506515.0,286047003.9,Y
1700506515.9,286047003.9,P
1700506535.8,286046999.8,N
1700506555.6,286047000.2,N
1700506575.5,286047000.5,N
1700506595.3,286046999.8,N
1700506615.1,286047000.5,N
1700506635.9,286046999.8,N
1700506655.7,286047002.7,N
1700506675.5,286047002.6,N
1700506695.4,286047002.1,N
1700506715.2,286047002.4,N
1700506735.1,286047002.7,N
1700506736.0,286047002.7,N
1700506755.8,286047000.4,N
1700506775.6,286047002.4,N
1700506795.5,286047002.7,N
